OBJECT V (43777 NORAD) Tracking and Keplerian Element Data

This shows tracking and keplerian element data for the satellite.

Feedback or suggestion? Click here.




ElementValue
Catalog43777
NameOBJECT V
Epoch Orbit666
Epoch Day17.4079414
Epoch Year2019
RAAN91.072
Inclination97.7592
Eccentricity0.0017198
Argument of Perigee114.054
Mean Anonmoly246.2482
Mean Motion14.94409537
Decay Rate5.93E-06
L11 43777U 18099V 19017.40794140 .00000593 00000-0 60223-4 0 9996
L22 43777 97.7592 91.0720 0017198 114.0540 246.2482 14.94409537 6661

Live tracking and technical data element details for OBJECT V (NORAD 43777). OBJECT V can be tracked NOW for your location showing map with azimuth and elevation plus other details from your city location.

Track the satellite on the map from your city or location and see movement details for azimuth, elevation, latitude, longitude, range, height, and movement on the map or in text.







IsCatalogInMostPopularTable: catalog: 43777, numindb: 19
Update: records affected: 1



GetName: 43777 OBJECT V

Hit Count: updated at: Wed, 23 Jan 2019 03:31:52 GMT